GW7739 Weather Reports


time (UTC)temp
C
wind
direction
speed
KPH
gust
KPH
rain 1hr
cm
rain 24hr
cm
rain mn
cm
humidity
%
barometer
mb
20260902141235 30 265 8.0 9.7 0.00 0.00 0.00 61 987.5
20260902140735 30 257 3.2 9.7 0.00 0.00 0.00 63 987.1
20260902140235 30 266 4.8 6.4 0.00 0.00 0.00 63 987.1
20260902135735 29 280 1.6 6.4 0.00 0.00 0.00 64 987.1
20260902135235 29 49 0.0 6.4 0.00 0.00 0.00 64 987.1
20260902134735 28 272 3.2 4.8 0.00 0.00 0.00 66 987.1
20260902134235 28 198 3.2 4.8 0.00 0.00 0.00 68 987.1
20260902133735 28 235 0.0 3.2 0.00 0.00 0.00 71 987.1
20260902133235 28 209 1.6 3.2 0.00 0.00 0.00 70 987.1
20260902132735 29 89 0.0 3.2 0.00 0.00 0.00 68 987.5
20260902132235 28 44 0.0 3.2 0.00 0.00 0.00 70 987.1
20260902131735 28 89 0.0 3.2 0.00 0.00 0.00 69 987.1
20260902131235 28 250 0.0 1.6 0.00 0.00 0.00 70 987.1
20260902130735 27 297 0.0 1.6 0.00 0.00 0.00 71 987.1
20260902130235 27 297 0.0 1.6 0.00 0.00 0.00 71 987.1
20260902125735 28 119 0.0 1.6 0.00 0.00 0.00 68 987.1
20260902125235 27 102 0.0 1.6 0.00 0.00 0.00 71 987.1
20260902124735 26 129 0.0 0.0 0.00 0.00 0.00 74 987.1
20260902124235 25 75 0.0 1.6 0.00 0.00 0.00 76 986.8
20260902123735 25 230 0.0 1.6 0.00 0.00 0.00 74 986.8
20260902123235 25 315 0.0 0.0 0.00 0.00 0.00 75 987.1
20260902122735 25 297 0.0 1.6 0.00 0.00 0.00 77 986.8
20260902122235 24 37 0.0 3.2 0.00 0.00 0.00 78 986.8
20260902121735 24 135 0.0 3.2 0.00 0.00 0.00 77 986.8
20260902121235 24 135 0.0 1.6 0.00 0.00 0.00 77 986.8
20260902120735 24 124 0.0 0.0 0.00 0.00 0.00 77 986.8
20260902120235 23 104 0.0 0.0 0.00 0.00 0.00 77 986.8
20260902115735 23 135 0.0 1.6 0.00 0.00 0.00 78 986.5
20260902115235 23 55 0.0 1.6 0.00 0.00 0.00 78 986.5
20260902114735 23 343 0.0 1.6 0.00 0.00 0.00 80 986.5
20260902114235 23 173 0.0 1.6 0.00 0.00 0.00 81 986.5
20260902113735 23 129 0.0 1.6 0.00 0.00 0.00 80 986.5
20260902113234 23 142 0.0 3.2 0.00 0.00 0.00 79 986.5
20260902112735 23 135 0.0 3.2 0.00 0.00 0.00 78 986.5
20260902112235 23 50 0.0 1.6 0.00 0.00 0.00 80 986.5
20260902111735 23 37 0.0 1.6 0.00 0.00 0.00 79 986.1
20260902111235 23 309 0.0 1.6 0.00 0.00 0.00 77 986.5
20260902110735 23 282 0.0 3.2 0.00 0.00 0.00 76 986.1
20260902110235 23 183 0.0 3.2 0.00 0.00 0.00 78 986.1
20260902105735 23 224 0.0 1.6 0.00 0.00 0.00 80 986.1
20260902105235 22 156 0.0 1.6 0.00 0.00 0.00 81 986.1
20260902104735 22 148 0.0 1.6 0.00 0.00 0.00 84 986.1
20260902104234 22 336 0.0 3.2 0.00 0.00 0.00 85 985.8
20260902103735 22 37 0.0 3.2 0.00 0.00 0.00 85 985.4
20260902103235 22 197 1.6 1.6 0.00 0.00 0.00 85 985.8
20260902102734 22 50 0.0 1.6 0.00 0.00 0.00 83 985.8
20260902102235 22 299 0.0 3.2 0.00 0.00 0.00 81 985.8
20260902101735 22 76 0.0 3.2 0.00 0.00 0.00 82 985.8
20260902101235 22 87 1.6 3.2 0.00 0.00 0.00 84 985.8
20260902100735 22 180 0.0 3.2 0.00 0.00 0.00 85 985.4
20260902100235 22 70 0.0 3.2 0.00 0.00 0.00 86 985.4
20260902095735 22 127 0.0 3.2 0.00 0.00 0.00 87 985.4
20260902095235 22 172 1.6 4.8 0.00 0.00 0.00 86 985.8
20260902094734 21 335 0.0 4.8 0.00 0.00 0.00 88 985.4
20260902094235 21 330 1.6 3.2 0.00 0.00 0.00 88 985.4
20260902093735 21 222 0.0 3.2 0.00 0.00 0.00 89 985.4
20260902093235 21 180 0.0 1.6 0.00 0.00 0.00 88 985.4
20260902092735 22 115 1.6 3.2 0.00 0.00 0.00 84 985.1
20260902092234 23 154 0.0 3.2 0.00 0.00 0.00 80 985.4
20260902091735 25 123 1.6 3.2 0.00 0.00 0.00 74 985.4
20260902091234 26 92 3.2 3.2 0.00 0.00 0.00 70 985.1
20260902090734 26 72 1.6 4.8 0.00 0.00 0.00 67 985.1
20260902090234 26 246 0.0 4.8 0.00 0.00 0.00 65 985.4
20260902085735 26 248 4.8 4.8 0.00 0.00 0.00 66 985.1
20260902085235 26 236 0.0 4.8 0.00 0.00 0.00 66 985.4
20260902084735 26 56 3.2 4.8 0.00 0.00 0.00 65 985.1
20260902084234 26 35 0.0 4.8 0.00 0.00 0.00 64 984.8
20260902083734 26 293 0.0 4.8 0.00 0.00 0.00 64 985.1
20260902083235 26 225 1.6 4.8 0.00 0.00 0.00 65 985.4
20260902082735 26 235 3.2 4.8 0.00 0.00 0.00 65 985.1
20260902082235 26 232 3.2 3.2 0.00 0.00 0.00 65 985.1
20260902081735 26 259 1.6 3.2 0.00 0.00 0.00 65 985.1
20260902081235 26 113 0.0 3.2 0.00 0.00 0.00 65 985.1
20260902080735 26 284 0.0 3.2 0.00 0.00 0.00 65 985.1
20260902080234 26 211 0.0 3.2 0.00 0.00 0.00 66 985.1
20260902075735 25 254 3.2 3.2 0.00 0.00 0.00 67 985.1
20260902075235 25 235 0.0 3.2 0.00 0.00 0.00 68 985.4
20260902074735 25 283 0.0 3.2 0.00 0.00 0.00 69 985.1
20260902074235 25 280 0.0 3.2 0.00 0.00 0.00 70 985.1
20260902073735 25 249 0.0 3.2 0.00 0.00 0.00 70 985.1
20260902073235 25 352 0.0 3.2 0.00 0.00 0.00 70 985.1
20260902072734 25 173 0.0 3.2 0.00 0.00 0.00 70 985.1
20260902072235 25 149 0.0 1.6 0.00 0.00 0.00 69 985.1
20260902071734 25 124 0.0 1.6 0.00 0.00 0.00 67 985.4
20260902071234 25 25 0.0 1.6 0.00 0.00 0.00 65 985.1
20260902070735 25 224 0.0 1.6 0.00 0.00 0.00 65 985.1
20260902070234 26 217 0.0 1.6 0.00 0.00 0.00 65 985.1
20260902065734 26 191 0.0 1.6 0.00 0.00 0.00 65 985.1
20260902065235 26 137 0.0 1.6 0.00 0.00 0.00 64 985.1
20260902064735 26 110 0.0 3.2 0.00 0.00 0.00 63 985.1
20260902064235 26 126 0.0 3.2 0.00 0.00 0.00 63 985.1
20260902063734 26 60 0.0 3.2 0.00 0.00 0.00 61 985.1
20260902063234 26 184 0.0 9.7 0.00 0.00 0.00 62 985.4
20260902062734 26 257 1.6 9.7 0.00 0.00 0.00 62 985.1
20260902062234 26 237 3.2 4.8 0.00 0.00 0.00 63 985.4
20260902061735 26 160 0.0 4.8 0.00 0.00 0.00 65 985.1
20260902061234 25 286 0.0 1.6 0.00 0.00 0.00 65 985.1
20260902060734 25 169 0.0 1.6 0.00 0.00 0.00 65 985.1
20260902060234 25 89 0.0 3.2 0.00 0.00 0.00 65 985.1
20260902055735 25 121 0.0 3.2 0.00 0.00 0.00 66 985.4
20260902055234 25 129 0.0 3.2 0.00 0.00 0.00 66 985.1
20260902054735 25 180 0.0 1.6 0.00 0.00 0.00 67 985.4
20260902054234 25 150 1.6 3.2 0.00 0.00 0.00 67 985.1
20260902053735 25 76 0.0 3.2 0.00 0.00 0.00 67 985.1
20260902053235 25 135 0.0 4.8 0.00 0.00 0.00 67 985.1
20260902052734 25 252 0.0 4.8 0.00 0.00 0.00 68 985.1
20260902052234 25 324 0.0 3.2 0.00 0.00 0.00 68 985.1
20260902051735 25 44 0.0 3.2 0.00 0.00 0.00 68 985.1
20260902051235 25 37 0.0 3.2 0.00 0.00 0.00 69 985.1
20260902050735 25 164 0.0 3.2 0.00 0.00 0.00 70 985.1
20260902050235 25 135 0.0 3.2 0.00 0.00 0.00 72 985.4
20260902045734 25 129 0.0 3.2 0.00 0.00 0.00 72 985.1
20260902045235 25 103 0.0 1.6 0.00 0.00 0.00 73 985.4
20260902044735 25 163 0.0 1.6 0.00 0.00 0.00 73 985.4
20260902044235 25 143 0.0 1.6 0.00 0.00 0.00 74 985.1
20260902043734 25 180 0.0 1.6 0.00 0.00 0.00 75 985.4
20260902043234 25 224 0.0 1.6 0.00 0.00 0.00 77 985.4
20260902042735 25 44 0.0 3.2 0.00 0.00 0.00 76 985.4
20260902042235 25 148 0.0 4.8 0.00 0.00 0.00 75 985.4
20260902041734 25 158 0.0 4.8 0.00 0.00 0.00 75 985.4
20260902041235 25 129 0.0 0.0 0.00 0.00 0.00 78 985.4
20260902040735 25 44 0.0 1.6 0.00 0.00 0.00 74 985.4
20260902040234 26 333 0.0 3.2 0.00 0.00 0.00 72 985.4
20260902035734 26 135 0.0 3.2 0.00 0.00 0.00 69 985.4
20260902035234 26 50 0.0 3.2 0.00 0.00 0.00 70 985.4
20260902034735 26 168 0.0 3.2 0.00 0.00 0.00 68 985.4
20260902034234 26 166 0.0 4.8 0.00 0.00 0.00 70 985.4
20260902033735 26 132 0.0 4.8 0.00 0.00 0.00 71 985.4
20260902033234 26 50 0.0 3.2 0.00 0.00 0.00 73 985.4
20260902032734 26 173 0.0 3.2 0.00 0.00 0.00 73 985.4
20260902032234 25 179 0.0 3.2 0.00 0.00 0.00 75 985.8
20260902031735 26 129 0.0 3.2 0.00 0.00 0.00 77 985.4
20260902031235 26 130 1.6 3.2 0.00 0.00 0.00 74 985.4
20260902030735 26 297 0.0 3.2 0.00 0.00 0.00 72 985.4
20260902030234 26 53 0.0 3.2 0.00 0.00 0.00 71 985.4
20260902025734 26 184 0.0 3.2 0.00 0.00 0.00 72 985.4
20260902025235 26 63 0.0 4.8 0.00 0.00 0.00 73 985.8
20260902024735 26 75 0.0 4.8 0.00 0.00 0.00 75 985.4
20260902024235 26 230 0.0 1.6 0.00 0.00 0.00 74 985.8
20260902023734 26 212 0.0 1.6 0.00 0.00 0.00 75 985.4
20260902023234 26 224 0.0 0.0 0.00 0.00 0.00 78 985.4
20260902022734 26 217 0.0 0.0 0.00 0.00 0.00 77 985.4
20260902022235 26 44 0.0 1.6 0.00 0.00 0.00 76 985.4
20260902021734 26 53 0.0 3.2 0.00 0.00 0.00 74 985.4
20260902021234 26 202 0.0 3.2 0.00 0.00 0.00 73 985.4
20260902020734 26 135 0.0 0.0 0.00 0.00 0.00 73 985.4
20260902020235 26 249 0.0 0.0 0.00 0.00 0.00 72 985.4
20260902015734 27 249 0.0 3.2 0.00 0.00 0.00 72 985.1
20260902015235 27 160 0.0 3.2 0.00 0.00 0.00 70 985.4
20260902014734 27 131 1.6 1.6 0.00 0.00 0.00 65 985.4
20260902014234 27 199 0.0 3.2 0.00 0.00 0.00 65 985.1
20260902013735 27 164 0.0 3.2 0.00 0.00 0.00 65 985.4
20260902013234 28 126 0.0 3.2 0.00 0.00 0.00 66 985.4
20260902012734 28 160 0.0 3.2 0.00 0.00 0.00 64 985.1
20260902012234 28 302 0.0 1.6 0.00 0.00 0.00 66 985.1
20260902011735 28 343 0.0 1.6 0.00 0.00 0.00 65 985.1
20260902011234 28 157 0.0 3.2 0.00 0.00 0.00 64 985.1
20260902010735 28 130 0.0 3.2 0.00 0.00 0.00 61 984.8
20260902010234 29 147 0.0 1.6 0.00 0.00 0.00 60 984.8
20260902005734 29 141 0.0 1.6 0.00 0.00 0.00 59 984.8
20260902005235 29 246 0.0 3.2 0.00 0.00 0.00 58 984.8
20260902004734 29 315 0.0 3.2 0.00 0.00 0.00 62 984.8
20260902004234 30 88 1.6 3.2 0.00 0.00 0.00 58 984.8
20260902003734 30 99 0.0 1.6 0.00 0.00 0.00 55 984.8
20260902003235 30 121 0.0 1.6 0.00 0.00 0.00 55 984.8
20260902002735 30 44 0.0 1.6 0.00 0.00 0.00 55 984.8
20260902002234 31 163 1.6 1.6 0.00 0.00 0.00 55 984.8
20260902001735 31 322 1.6 1.6 0.00 0.00 0.00 54 984.8
20260902001234 31 144 0.0 1.6 0.00 0.00 0.00 55 984.8
20260902000735 31 151 0.0 3.2 0.00 0.00 0.00 55 984.8
20260902000234 31 221 0.0 3.2 0.00 0.00 0.00 54 984.8
20260901235734 32 158 0.0 3.2 0.00 0.00 0.00 52 984.8
20260901235234 32 158 0.0 3.2 0.00 0.00 0.00 51 984.8
20260901234734 32 135 0.0 3.2 0.00 0.00 0.00 51 984.8
20260901234234 32 297 0.0 4.8 0.00 0.00 0.00 51 984.8
20260901233734 32 124 1.6 4.8 0.00 0.00 0.00 50 984.8
20260901233234 32 278 3.2 4.8 0.00 0.00 0.00 50 984.8
20260901232734 32 269 0.0 4.8 0.00 0.00 0.00 50 984.8
20260901232234 32 193 3.2 8.0 0.00 0.00 0.00 49 984.8
20260901231735 32 222 1.6 8.0 0.00 0.00 0.00 49 985.1
20260901231234 32 122 0.0 4.8 0.00 0.00 0.00 50 984.8
20260901230735 32 89 3.2 6.4 0.00 0.00 0.00 51 984.8
20260901230234 32 102 3.2 6.4 0.00 0.00 0.00 50 985.1
20260901225734 32 101 1.6 6.4 0.00 0.00 0.00 50 985.1
20260901225234 32 132 4.8 8.0 0.00 0.00 0.00 49 984.8
20260901224734 32 93 4.8 8.0 0.00 0.00 0.00 50 984.8
20260901224234 32 97 6.4 8.0 0.00 0.00 0.00 50 984.8
20260901223734 32 80 4.8 8.0 0.00 0.00 0.00 50 984.8
20260901223235 32 162 0.0 8.0 0.00 0.00 0.00 49 984.8
20260901222735 32 82 3.2 6.4 0.00 0.00 0.00 48 984.8
20260901222234 32 87 1.6 6.4 0.00 0.00 0.00 48 985.1
20260901221734 32 82 1.6 8.0 0.00 0.00 0.00 49 984.8
20260901221234 32 102 4.8 8.0 0.00 0.00 0.00 49 984.8
20260901220735 33 75 4.8 6.4 0.00 0.00 0.00 50 984.8
20260901220234 33 164 3.2 3.2 0.00 0.00 0.00 49 985.1
20260901215734 32 260 1.6 6.4 0.00 0.00 0.00 50 984.8
20260901215234 32 196 0.0 6.4 0.00 0.00 0.00 51 985.1
20260901214735 32 151 3.2 6.4 0.00 0.00 0.00 52 984.8
20260901214235 32 192 0.0 4.8 0.00 0.00 0.00 53 985.1
20260901213734 31 297 0.0 3.2 0.00 0.00 0.00 54 985.1
20260901213234 31 174 0.0 4.8 0.00 0.00 0.00 54 984.8
20260901212734 31 72 1.6 6.4 0.00 0.00 0.00 53 984.8
20260901212235 31 129 1.6 6.4 0.00 0.00 0.00 52 984.8
20260901211711 32 104 3.2 9.7 0.00 0.00 0.00 53 984.8
20260901211211 32 126 3.2 9.7 0.00 0.00 0.00 52 984.8
20260901210711 32 110 6.4 14.5 0.00 0.00 0.00 52 984.8
20260901210212 32 124 6.4 14.5 0.00 0.00 0.00 51 984.8
20260901205711 32 129 12.9 16.1 0.00 0.00 0.00 52 985.1
20260901205212 32 122 8.0 16.1 0.00 0.00 0.00 49 985.1
20260901204711 33 169 8.0 14.5 0.00 0.00 0.00 46 985.1
20260901204212 33 198 1.6 9.7 0.00 0.00 0.00 44 985.1
20260901203711 33 236 1.6 14.5 0.00 0.00 0.00 47 985.1
20260901203211 33 107 4.8 16.1 0.00 0.00 0.00 46 985.4
20260901202712 33 129 4.8 14.5 0.00 0.00 0.00 46 985.1
20260901202211 33 127 8.0 11.3 0.00 0.00 0.00 47 985.1
20260901201712 33 104 4.8 11.3 0.00 0.00 0.00 48 985.4
20260901201212 32 148 9.7 11.3 0.00 0.00 0.00 48 985.4
20260901200712 32 191 4.8 14.5 0.00 0.00 0.00 49 985.4
20260901200211 32 183 4.8 19.3 0.00 0.00 0.00 48 985.4
20260901195712 32 163 8.0 19.3 0.00 0.00 0.00 47 985.4
20260901195211 33 137 9.7 14.5 0.00 0.00 0.00 47 985.4
20260901194712 33 114 3.2 9.7 0.00 0.00 0.00 46 985.4
20260901194212 33 156 8.0 9.7 0.00 0.00 0.00 47 985.4
20260901193712 33 125 4.8 11.3 0.00 0.00 0.00 45 985.4
20260901193212 33 290 3.2 11.3 0.00 0.00 0.00 48 985.4
20260901192712 33 205 0.0 11.3 0.00 0.00 0.00 48 985.8
20260901192212 32 87 3.2 11.3 0.00 0.00 0.00 51 985.8
20260901191712 32 134 3.2 8.0 0.00 0.00 0.00 52 985.8
20260901191212 31 106 4.8 9.7 0.00 0.00 0.00 52 985.8
20260901190712 31 59 9.7 14.5 0.00 0.00 0.00 53 985.8
20260901190212 32 122 4.8 19.3 0.00 0.00 0.00 51 985.8
20260901185711 33 119 8.0 19.3 0.00 0.00 0.00 49 986.1
20260901185211 33 64 3.2 8.0 0.00 0.00 0.00 48 986.1
20260901184711 33 136 1.6 11.3 0.00 0.00 0.00 50 986.1
20260901184211 32 149 8.0 12.9 0.00 0.00 0.00 47 986.1
20260901183711 32 92 3.2 12.9 0.00 0.00 0.00 49 986.5
20260901183211 32 95 4.8 11.3 0.00 0.00 0.00 48 986.5
20260901182711 32 94 6.4 11.3 0.00 0.00 0.00 50 986.5
20260901182211 32 44 4.8 8.0 0.00 0.00 0.00 53 986.5
20260901181711 31 31 3.2 11.3 0.00 0.00 0.00 52 986.8
20260901181211 31 344 8.0 11.3 0.00 0.00 0.00 53 986.5
20260901180711 31 1 8.0 9.7 0.00 0.00 0.00 53 986.5
20260901180211 32 13 8.0 14.5 0.00 0.00 0.00 51 986.5
20260901175711 32 57 4.8 14.5 0.00 0.00 0.00 51 986.5
20260901175211 32 25 8.0 11.3 0.00 0.00 0.00 50 986.8
20260901174711 32 66 9.7 11.3 0.00 0.00 0.00 49 986.8
20260901174211 32 27 3.2 11.3 0.00 0.00 0.00 48 986.8
20260901173711 32 214 1.6 8.0 0.00 0.00 0.00 50 986.8
20260901173212 32 224 1.6 11.3 0.00 0.00 0.00 51 987.1
20260901172711 32 267 4.8 11.3 0.00 0.00 0.00 50 987.1
20260901172212 32 274 8.0 11.3 0.00 0.00 0.00 50 986.8
20260901171712 31 281 3.2 11.3 0.00 0.00 0.00 52 987.1
20260901171211 31 317 4.8 12.9 0.00 0.00 0.00 52 987.5
20260901170711 31 351 8.0 17.7 0.00 0.00 0.00 52 987.5
20260901170211 31 354 9.7 17.7 0.00 0.00 0.00 51 987.5
20260901165711 31 328 6.4 9.7 0.00 0.00 0.00 52 987.5
20260901165211 31 36 4.8 19.3 0.00 0.00 0.00 54 987.5
20260901164712 31 256 4.8 19.3 0.00 0.00 0.00 56 987.5
20260901164211 31 289 8.0 19.3 0.00 0.00 0.00 54 987.5
20260901163711 31 289 6.4 16.1 0.00 0.00 0.00 56 987.5
20260901163211 31 5 4.8 16.1 0.00 0.00 0.00 54 987.5
20260901162711 32 216 4.8 8.0 0.00 0.00 0.00 54 987.8
20260901162211 31 264 4.8 8.0 0.00 0.00 0.00 55 987.8
20260901161713 31 267 3.2 14.5 0.00 0.00 0.00 57 987.8
20260901161212 30 337 6.4 16.1 0.00 0.00 0.00 59 987.8
20260901160713 31 356 4.8 16.1 0.00 0.00 0.00 57 987.8
20260901160212 30 253 4.8 17.7 0.00 0.00 0.00 59 987.8
20260901155712 30 232 3.2 17.7 0.00 0.00 0.00 59 987.8
20260901155211 30 327 6.4 12.9 0.00 0.00 0.00 59 988.2
20260901154711 30 327 8.0 17.7 0.00 0.00 0.00 61 988.2
20260901154211 30 287 11.3 17.7 0.00 0.00 0.00 61 987.8
20260901153711 30 256 6.4 12.9 0.00 0.00 0.00 61 987.8
20260901153212 30 247 4.8 16.1 0.00 0.00 0.00 62 988.2
20260901152711 30 290 11.3 16.1 0.00 0.00 0.00 60 987.8
20260901152212 30 289 9.7 11.3 0.00 0.00 0.00 61 988.2
20260901151711 30 251 6.4 14.5 0.00 0.00 0.00 62 987.8
20260901151211 30 198 6.4 14.5 0.00 0.00 0.00 62 987.8
20260901150712 30 261 9.7 12.9 0.00 0.00 0.00 62 987.8
20260901150211 30 287 3.2 12.9 0.00 0.00 0.00 63 987.5
20260901145711 30 297 1.6 9.7 0.00 0.00 0.00 63 987.8
20260901145211 30 275 8.0 12.9 0.00 0.00 0.00 63 987.8
20260901144711 30 240 4.8 12.9 0.00 0.00 0.00 63 987.8
20260901144211 30 255 8.0 14.5 0.00 0.00 0.00 63 987.5
20260901143711 29 250 6.4 14.5 0.00 0.00 0.00 63 987.8
20260901143211 29 195 8.0 12.9 0.00 0.00 0.00 63 987.8
20260901142711 29 257 1.6 12.9 0.00 0.00 0.00 64 988.2
20260901142212 29 214 3.2 11.3 0.00 0.00 0.00 64 987.8
20260901141711 29 234 4.8 11.3 0.00 0.00 0.00 64 987.5